GFSNE_prec_cloud_159.txt.gz
Cloud_Cover
0 0 0 0 5 5 5 0 0 0 0 0 0 0 0 14 75 100 72 95 96 60 100 100 83 30 88 100 100 100 100 52 12 45 59 88 80 93
0 0 0 0 1 5 3 0 2 8 1 0 0 0 4 5 19 78 90 87 66 83 100 78 100 17 66 97 100 100 100 100 100 96 92 78 35 9
0 0 0 0 0 0 8 3 0 14 5 1 0 5 98 46 45 51 89 100 98 100 98 52 100 99 88 98 89 92 83 8 18 85 96 18 85 77
0 0 0 0 0 0 23 6 5 1 43 5 0 5 43 100 100 92 100 100 100 55 100 100 100 72 61 100 88 69 13 6 5 45 95 39 42 99
0 0 0 0 0 0 9 17 10 15 69 6 3 100 100 100 100 100 100 100 100 95 100 100 100 98 74 39 15 12 5 8 17 5 49 75 100 100
0 0 0 0 0 0 0 0 5 10 10 23 53 91 81 96 63 100 100 100 91 100 99 100 97 99 100 73 58 99 63 30 7 54 25 71 100 58
0 0 0 0 0 0 0 1 0 16 31 33 25 44 48 94 100 100 100 100 100 100 100 100 96 100 77 99 70 91 5 8 10 92 100 100 18 30
0 0 0 0 0 0 0 0 0 0 2 27 49 93 100 9 87 100 100 100 100 100 99 90 100 100 100 62 100 6 16 82 100 99 95 5 5 5
100 72 0 0 0 0 2 0 10 6 5 5 5 92 100 88 68 100 98 50 24 59 54 94 100 100 100 99 100 100 100 100 100 97 6 5 45 8
100 100 23 5 5 5 3 0 11 18 46 33 8 6 96 100 61 11 76 32 52 91 100 100 100 100 100 100 100 100 100 100 100 100 78 19 71 19
9 98 49 5 57 22 89 32 16 12 3 17 36 85 100 100 100 100 99 99 100 100 100 100 100 100 100 56 83 98 99 100 91 34 92 53 24 5
99 8 26 54 33 53 35 96 91 100 100 100 100 100 100 100 100 100 100 100 100 100 100 100 100 100 86 99 100 100 93 84 96 100 99 97 98 9
67 100 99 66 88 100 90 99 100 100 100 100 100 100 100 82 99 100 100 100 100 100 100 100 100 100 100 100 97 98 94 77 95 100 100 100 96 100
14 7 34 98 100 100 100 100 100 100 100 100 100 100 100 100 100 100 100 100 100 100 100 100 100 100 100 100 100 93 83 100 100 100 97 97 100 40
100 40 95 100 100 100 100 100 100 100 100 100 100 100 100 100 100 100 100 100 100 100 100 100 100 100 100 100 100 100 100 61 87 88 100 100 100 100
100 100 100 100 100 100 100 100 100 100 100 100 100 100 100 100 100 100 100 100 100 100 100 100 100 100 100 100 100 100 100 100 100 100 100 100 100 100
100 100 100 100 100 100 100 100 100 100 100 100 100 100 100 100 100 100 100 100 100 100 100 100 100 100 100 100 100 100 100 100 100 100 100 100 100 100
100 100 100 100 100 100 100 100 100 100 100 100 100 100 100 100 100 100 100 100 100 100 100 100 100 100 100 100 100 100 100 100 100 100 100 100 100 100
100 100 100 100 100 100 100 100 100 100 100 100 100 100 100 100 100 100 100 100 100 100 100 100 100 100 100 100 100 100 100 100 100 100 100 100 100 100
100 100 100 100 100 100 100 100 100 100 100 100 100 100 100 100 100 100 100 100 100 100 100 100 100 100 100 100 100 100 100 100 100 100 100 100 83 43
100 100 100 100 100 100 100 100 100 100 100 100 100 100 100 100 100 92 60 95 100 100 100 100 100 100 100 100 100 100 100 72 97 66 90 65 35 76
100 100 100 100 100 100 100 100 100 100 100 100 100 100 89 48 85 86 59 100 100 100 100 88 81 60 96 99 96 100 67 100 72 83 14 70 100 49
100 100 100 100 100 100 100 100 100 99 100 100 95 95 97 96 86 44 96 100 100 99 76 91 89 100 100 100 100 100 87 88 67 98 92 100 98 12

GFSNE_prec_cloud_162.txt.gz
Cloud_Cover
0 0 0 0 0 0 1 5 5 5 5 5 5 5 2 0 5 97 91 45 39 22 70 91 98 54 87 17 5 16 5 5 34 18 60 6 92 79
0 0 0 0 0 0 1 0 5 5 8 5 6 5 5 5 38 36 80 99 100 100 8 100 72 11 23 90 94 48 91 19 60 17 5 17 45 63
0 0 0 0 0 0 16 26 5 5 5 5 81 5 5 3 98 70 86 95 96 86 99 93 77 5 8 83 97 46 95 98 32 30 16 18 71 100
40 5 5 3 0 0 0 0 0 59 5 0 7 10 5 5 82 100 80 74 62 72 100 100 100 100 98 9 39 17 6 5 9 86 5 4 7 19
10 5 1 0 0 0 0 0 0 2 5 48 6 5 6 77 100 100 100 100 96 96 98 100 100 99 99 89 73 19 32 72 34 5 5 5 5 5
13 5 3 2 0 0 0 0 0 2 30 48 47 20 10 100 100 100 100 97 96 99 87 45 100 99 79 100 100 99 71 18 32 24 91 100 70 90
98 3 0 0 0 0 1 0 0 0 16 30 63 67 72 100 100 100 100 100 99 99 100 98 88 100 100 100 88 80 83 86 86 99 100 100 60 27
93 100 100 100 4 9 5 3 0 4 0 0 0 12 4 37 69 100 100 100 100 98 100 100 100 100 100 99 100 100 26 20 100 96 98 100 100 81
22 30 78 100 100 100 75 12 16 4 0 0 0 0 0 5 40 100 100 88 43 58 77 76 100 100 100 100 100 96 100 92 100 78 100 100 100 100
100 98 100 100 96 66 10 47 2 1 12 10 3 0 1 3 96 99 58 100 77 90 100 100 100 100 100 100 100 100 82 97 99 88 91 99 100 100
100 92 79 100 100 98 51 28 18 51 37 27 26 54 36 46 35 72 100 100 100 100 100 100 100 100 100 100 100 100 67 82 72 89 81 29 98 100
91 33 89 53 27 67 48 20 67 29 74 32 100 100 91 86 100 100 100 100 100 100 100 100 100 100 100 100 100 100 100 74 100 100 97 23 44 96
100 100 77 47 63 100 96 80 44 28 98 100 100 100 100 100 100 100 100 100 100 100 100 100 100 100 100 100 100 100 100 99 95 100 84 62 91 88
100 100 33 97 100 100 100 100 100 100 100 100 100 100 100 100 100 100 100 100 100 100 100 100 100 100 100 100 100 100 100 100 100 100 100 100 100 98
100 100 100 99 100 100 100 100 100 100 100 100 100 100 100 100 100 100 100 100 100 100 100 100 100 100 100 100 100 100 100 100 100 100 100 100 100 100
100 100 100 100 82 100 100 100 100 100 100 100 100 100 100 100 100 100 100 100 100 100 100 100 100 100 100 100 100 100 100 100 100 100 100 100 100 100
100 100 100 100 100 100 100 100 100 100 100 100 100 100 100 100 100 100 100 100 100 100 100 100 100 100 100 100 100 100 100 100 100 100 100 100 100 100
100 100 100 100 100 100 100 100 100 100 100 100 100 100 100 100 100 100 100 100 100 100 100 100 100 100 100 100 100 100 100 100 100 100 100 100 100 100
100 100 100 100 100 100 100 100 100 100 100 100 100 100 100 100 100 100 100 100 100 100 100 100 100 100 100 100 100 100 100 100 100 100 100 100 100 100
100 100 100 100 100 100 100 100 100 100 100 100 100 100 100 100 100 100 100 100 100 100 100 100 100 100 100 100 100 100 100 100 100 100 100 66 100 86
100 100 100 100 100 100 100 100 100 100 100 100 100 100 100 100 100 100 100 96 100 96 88 84 83 98 78 74 93 97 100 100 100 100 28 32 94 100
100 100 95 92 100 100 100 100 100 100 100 100 100 100 100 100 100 96 92 100 100 70 98 10 91 92 76 98 100 100 100 100 99 97 100 100 100 100
100 98 100 100 100 100 100 100 100 100 100 100 100 100 100 100 100 100 100 100 98 100 100 95 99 100 100 100 99 90 100 100 100 100 100 99 100 100

GFSNE_prec_cloud_165.txt.gz
Cloud_Cover
0 0 0 0 0 0 0 0 0 0 0 1 2 0 1 2 4 4 9 27 20 100 100 48 68 64 69 10 17 5 5 5 5 5 5 13 15 39
0 0 1 0 0 0 0 4 7 1 0 0 2 5 2 0 0 29 33 8 100 99 75 48 85 96 6 7 9 62 43 5 5 5 10 6 59 98
5 0 0 0 0 0 0 0 0 3 4 16 0 0 3 5 6 17 39 86 90 92 80 100 100 68 83 60 9 9 5 5 5 21 8 28 52 31
0 0 0 0 0 0 0 0 0 0 1 5 63 70 4 10 46 100 56 99 98 74 19 82 53 100 97 82 63 5 5 84 93 48 8 9 5 10
0 0 0 0 4 5 3 0 0 0 0 5 5 27 18 45 100 100 100 100 100 74 56 51 5 5 5 5 42 43 8 70 36 13 80 100 92 10
13 77 20 3 2 0 2 1 0 0 0 0 2 20 8 88 90 98 100 100 100 86 37 68 5 5 5 6 31 85 65 74 30 5 5 5 5 17
100 100 54 5 5 0 0 0 0 0 0 0 2 22 45 91 100 100 100 100 100 100 100 67 90 94 72 25 52 22 15 9 40 47 45 10 40 79
5 8 97 86 100 100 76 0 0 0 0 0 0 3 6 26 34 100 100 100 100 100 100 100 82 100 94 28 100 100 100 87 78 64 10 28 96 90
32 44 100 90 5 9 44 91 85 9 0 0 0 0 0 3 0 97 100 100 100 95 100 100 100 100 100 100 100 100 100 90 93 25 20 5 27 55
100 100 72 58 16 14 63 61 99 21 9 5 3 0 0 0 3 18 42 95 100 100 100 100 99 100 94 100 100 100 100 100 100 94 38 86 100 93
42 35 99 100 96 84 90 96 99 82 27 5 5 51 93 30 5 35 96 100 100 100 100 100 100 100 100 100 100 100 100 100 100 100 100 100 100 100
86 56 18 45 23 95 100 100 100 67 51 96 43 77 80 100 100 100 100 100 100 100 100 100 100 100 100 100 100 100 100 100 100 100 100 100 100 100
99 57 4 1 66 99 96 99 88 97 94 39 98 100 100 100 100 100 100 100 100 100 100 100 100 100 100 100 100 100 100 100 100 100 100 100 100 100
100 100 94 91 100 100 100 92 100 100 100 100 100 100 100 100 100 100 100 100 100 100 100 100 100 100 100 100 100 100 100 100 100 100 100 100 100 100
100 100 99 99 100 100 74 100 100 100 100 100 100 100 98 100 100 100 100 100 100 100 100 100 100 100 100 100 100 100 100 100 100 100 100 100 100 100
100 100 100 100 100 100 70 100 100 100 100 100 100 100 100 100 100 100 100 100 100 100 100 100 100 100 100 100 100 100 100 100 100 100 100 100 100 100
100 100 100 100 100 100 100 100 100 100 100 100 100 100 100 100 100 100 100 100 100 100 100 100 100 100 100 100 100 100 100 100 100 100 100 100 100 100
100 100 100 100 100 100 100 100 100 100 100 100 100 100 100 100 100 100 100 100 100 100 100 100 100 100 100 100 100 100 100 100 100 100 100 100 100 100
100 100 100 100 100 100 100 100 100 100 100 100 100 100 100 100 100 100 100 100 100 100 100 100 100 100 100 100 100 100 100 100 100 100 100 100 100 100
100 100 100 100 100 100 100 100 100 100 100 100 100 100 100 100 100 100 100 100 100 100 100 100 100 99 99 100 100 100 100 100 100 100 100 100 100 93
100 100 100 100 100 100 100 100 100 100 100 100 100 100 100 100 100 100 100 100 93 88 98 100 97 100 100 100 94 70 49 97 72 70 83 89 98 71
100 100 100 100 100 100 90 100 100 100 100 100 100 99 100 100 81 48 75 100 100 84 42 88 92 69 65 95 88 100 98 97 97 100 93 100 100 100
48 64 96 37 58 90 98 59 93 100 89 98 99 100 100 100 89 96 94 100 100 100 100 100 100 100 100 100 100 100 100 100 100 100 100 100 100 100

GFSNE_prec_cloud_168.txt.gz
Cloud_Cover
7 12 10 8 0 11 33 12 0 0 0 13 2 12 9 32 24 5 58 61 5 8 49 100 55 68 100 64 72 61 21 52 100 96 84 100 46 14
5 49 10 4 33 42 22 37 15 7 14 37 78 58 6 29 66 2 14 96 6 98 100 98 94 100 96 91 55 78 94 95 77 38 58 96 91 92
5 5 1 4 1 89 77 42 38 18 5 5 93 100 9 6 17 12 17 48 76 96 100 100 85 98 59 100 92 10 92 100 29 33 11 26 16 12
0 2 5 5 5 5 1 5 48 18 2 2 78 73 10 47 97 85 75 96 93 46 100 100 5 6 6 5 6 2 5 5 5 5 6 9 5 5
0 0 6 6 4 7 46 49 36 46 20 32 31 36 11 100 100 97 91 94 96 87 100 100 47 5 6 5 5 5 5 43 95 97 100 24 38 19
14 2 0 1 2 5 1 0 0 0 3 19 18 7 23 2 62 95 100 100 100 86 100 96 46 23 50 48 91 84 27 5 88 31 43 5 5 5
1 2 6 22 75 12 1 0 11 2 0 0 1 8 55 3 16 69 100 100 100 99 100 100 95 90 100 97 85 80 33 73 65 100 100 100 39 5
7 5 19 8 15 23 0 0 0 0 0 0 0 2 0 8 0 50 100 100 100 100 100 100 99 100 73 100 99 100 98 44 5 5 14 100 99 32
42 54 33 3 53 96 67 28 16 4 2 0 0 0 0 0 12 58 90 69 46 85 98 100 100 100 100 100 100 100 100 92 33 81 100 100 100 100
16 30 46 12 32 92 48 86 86 10 2 2 3 0 2 4 0 0 56 77 98 100 98 100 100 100 100 100 100 100 100 100 100 97 100 100 100 100
5 4 5 5 5 58 100 97 74 13 10 5 33 94 100 100 100 94 52 100 100 100 100 100 100 100 100 100 100 100 100 100 100 100 100 100 100 100
0 0 2 4 0 16 89 94 100 86 25 25 35 98 100 100 94 100 62 100 100 100 100 100 100 100 100 100 100 100 100 100 100 100 100 100 100 100
1 3 0 0 0 0 9 34 49 40 69 34 48 100 100 100 100 96 100 100 100 100 100 100 100 100 100 100 100 100 100 100 100 100 100 100 100 100
83 54 62 60 38 40 67 36 76 96 100 80 93 100 100 100 100 100 97 100 100 100 100 100 100 100 100 100 100 100 100 100 100 100 100 100 100 100
92 100 99 96 100 100 99 100 100 99 75 64 100 100 100 100 100 100 100 100 100 100 100 100 100 100 100 100 100 100 100 100 100 100 100 100 100 100
100 100 100 84 100 99 100 96 68 86 100 100 100 100 100 100 100 100 100 100 100 100 100 100 100 100 100 100 100 100 100 100 100 100 100 100 100 100
100 100 100 100 100 100 100 100 73 100 100 100 100 100 100 100 100 100 100 100 100 100 100 100 100 100 100 100 100 100 100 100 100 100 100 100 100 100
100 100 100 100 100 100 100 100 100 100 100 100 100 100 100 100 100 100 100 100 100 100 100 100 100 100 100 100 100 100 100 100 100 100 100 100 100 100
100 100 100 100 100 100 100 100 100 100 100 100 100 100 100 100 100 100 100 100 100 100 100 100 100 100 100 100 100 100 100 100 100 100 100 100 100 100
100 100 100 100 100 100 100 100 100 100 100 100 100 100 100 100 100 100 100 100 100 100 100 100 100 100 100 100 100 100 100 100 100 100 100 91 85 99
100 100 100 100 100 100 100 100 100 100 100 100 100 100 100 100 100 100 100 100 100 100 100 100 100 100 96 85 98 100 100 100 100 95 95 100 96 100
100 100 100 93 100 100 100 100 100 100 100 100 100 100 100 100 100 100 100 100 87 89 100 100 100 100 100 100 100 100 100 100 100 100 100 100 100 100
44 78 98 100 93 70 33 94 98 99 95 83 93 97 68 80 100 100 69 6 5 47 65 66 100 100 100 100 100 100 100 100 100 100 100 100 100 100

GFSNE_prec_cloud_171.txt.gz
Cloud_Cover
27 19 9 1 20 14 26 90 9 15 4 89 95 44 3 66 30 4 31 0 6 7 5 5 45 29 44 14 51 5 5 10 99 90 65 24 72 82
7 87 73 25 21 71 4 42 55 76 49 37 84 98 96 32 9 58 40 3 7 78 5 88 93 57 35 76 93 5 5 5 5 28 5 7 84 100
5 0 3 5 0 60 31 21 98 50 19 0 60 25 38 95 0 20 48 77 26 65 85 42 100 97 88 35 76 5 5 5 5 5 5 14 68 26
8 0 0 2 1 3 1 0 63 16 100 7 0 37 98 99 15 24 96 100 100 41 1 62 89 100 92 96 8 5 5 71 79 70 9 15 30 32
0 0 0 5 2 6 5 24 4 80 73 88 24 52 68 99 2 5 68 100 100 48 16 5 9 98 100 64 6 5 5 5 5 5 5 5 22 15
100 53 3 3 5 53 31 5 5 5 60 1 75 82 5 32 33 34 69 100 100 99 35 22 35 100 100 50 60 70 69 47 100 63 13 73 98 58
53 5 0 0 0 5 5 5 32 34 81 97 97 100 95 86 39 7 60 84 100 100 93 74 29 36 100 100 98 99 100 100 98 10 24 44 29 5
4 3 5 5 0 0 0 0 92 97 5 15 100 100 100 98 6 2 10 100 100 100 100 67 41 88 59 51 100 100 100 100 93 52 100 100 100 81
65 35 6 6 21 8 1 10 12 5 5 5 49 16 5 4 20 4 28 91 52 63 96 100 100 100 100 100 100 100 100 100 100 100 100 100 100 100
5 4 3 4 5 8 76 20 35 13 10 5 4 4 4 1 5 56 100 84 100 100 100 100 100 100 100 100 100 100 100 100 100 100 100 100 100 100
1 3 2 2 5 5 78 71 23 16 5 65 10 88 74 100 98 99 100 100 100 100 100 100 100 100 100 100 100 100 100 100 100 100 100 100 100 100
5 42 5 6 5 0 14 5 42 19 38 3 5 78 89 97 100 100 100 100 100 100 100 100 100 100 100 100 100 100 100 100 100 100 100 100 100 100
83 30 23 91 5 5 21 5 5 6 53 68 69 8 27 17 91 98 100 100 100 100 100 100 100 100 100 100 100 100 100 100 100 100 100 100 100 100
43 12 18 28 68 100 94 61 44 78 2 96 88 61 98 100 100 98 99 100 100 100 100 100 100 100 100 100 100 100 100 100 100 100 100 100 100 100
99 89 73 92 82 83 62 100 98 95 60 0 94 100 100 100 100 100 100 100 100 100 92 100 100 100 100 100 100 100 100 100 100 100 100 100 100 100
100 99 85 82 75 97 100 100 100 100 82 59 76 100 100 100 100 95 64 50 97 100 100 100 100 100 100 100 100 100 100 100 100 100 100 100 100 100
100 100 100 100 100 100 100 100 100 100 78 96 100 100 100 100 100 99 86 99 99 100 100 100 100 100 100 100 100 100 100 100 100 100 100 100 100 100
100 100 100 100 100 100 100 100 100 100 100 100 100 100 100 100 100 100 99 100 100 100 100 100 100 100 100 100 100 100 100 100 100 100 100 100 100 100
100 100 100 100 100 100 100 100 100 100 100 100 100 100 100 100 100 100 100 100 100 100 100 100 100 100 100 100 100 100 100 81 89 100 100 100 100 100
92 100 100 100 100 100 100 100 100 100 100 100 100 100 100 100 100 100 100 100 100 100 100 100 100 100 100 100 100 98 99 97 100 100 99 100 100 100
82 69 100 100 100 100 100 100 100 100 100 100 100 100 100 100 100 83 82 100 100 100 100 100 100 100 100 100 100 100 100 100 100 100 100 100 100 100
100 100 96 66 100 100 100 100 100 100 100 100 72 77 21 51 88 32 53 99 100 100 100 100 100 100 100 100 100 100 100 100 100 100 100 100 100 100
53 22 54 76 85 73 94 91 100 100 99 46 5 5 9 5 5 5 7 48 100 100 100 94 99 72 99 100 94 100 99 100 100 100 100 100 54 8

GFSNE_prec_cloud_174.txt.gz
Cloud_Cover
10 66 88 58 4 10 93 41 2 97 4 12 100 18 100 77 8 0 1 0 1 5 5 5 5 5 5 16 6 5 63 5 5 84 38 51 62 42
5 40 5 0 66 1 5 65 0 7 25 0 47 80 100 24 74 30 5 2 5 16 5 36 78 13 5 6 46 5 5 5 5 17 34 28 100 100
5 5 26 3 5 3 0 0 0 26 0 0 0 73 8 3 43 10 5 5 4 100 100 100 98 32 5 8 94 31 97 58 5 5 5 100 100 100
5 31 50 94 2 0 5 0 2 2 0 0 1 5 0 0 2 1 5 4 9 100 100 100 100 100 5 5 6 96 100 100 76 33 20 7 5 100
79 88 99 99 28 0 0 0 5 5 14 35 5 2 26 35 0 15 4 20 51 33 100 100 100 100 5 5 25 100 100 98 75 100 100 15 22 74
87 100 100 97 89 5 0 0 5 5 5 6 35 10 27 39 70 0 6 30 5 2 1 19 61 57 55 84 76 44 93 100 100 100 100 100 100 100
100 47 18 5 5 4 0 0 5 87 83 93 38 11 100 10 16 1 10 50 99 19 3 47 28 29 46 68 72 79 99 100 100 100 100 100 100 100
33 0 1 0 5 5 5 0 0 5 5 91 91 100 18 5 52 78 100 100 100 90 61 57 37 38 85 100 100 100 100 100 100 100 100 100 100 100
3 4 5 0 1 1 19 21 19 58 36 0 5 0 2 5 5 40 100 100 100 100 100 100 100 100 100 100 100 100 100 100 100 100 100 100 100 100
1 0 0 2 4 0 0 0 1 0 0 5 6 1 2 0 0 9 63 28 100 100 100 100 100 100 100 100 100 100 100 100 100 100 100 100 100 100
0 0 0 0 0 0 5 0 2 0 5 15 100 35 39 52 44 4 62 100 100 100 100 100 100 100 100 100 100 100 100 100 100 100 100 100 100 100
0 0 0 0 0 2 28 2 0 0 5 5 0 12 89 62 100 18 20 84 100 100 100 100 100 100 100 100 100 100 100 100 100 100 100 100 100 100
1 3 0 0 0 4 5 5 2 0 4 5 3 0 64 46 90 90 32 0 32 58 99 100 100 100 100 100 100 100 100 100 100 100 100 100 100 100
60 50 17 5 5 12 94 100 100 100 96 94 55 5 27 32 100 100 96 78 44 17 71 100 100 100 100 100 100 100 100 100 100 100 100 100 100 100
97 98 100 100 100 96 88 100 79 96 100 100 100 3 75 100 100 100 100 97 97 96 74 100 100 77 100 100 100 100 100 100 100 100 100 100 100 100
81 100 100 100 100 100 100 98 100 100 100 100 73 100 100 100 100 100 100 100 100 100 100 100 100 99 100 100 100 100 100 100 100 100 100 100 100 100
88 100 100 100 100 100 100 99 87 94 100 100 100 100 100 100 100 99 100 62 100 100 100 100 100 100 100 100 100 100 100 100 100 100 100 100 100 99
100 100 100 100 100 100 100 100 100 100 100 95 100 100 100 100 100 91 100 100 100 100 100 100 100 100 100 100 100 100 100 100 100 100 100 100 100 91
100 100 100 100 100 100 100 100 100 100 100 100 100 100 100 100 100 100 100 100 100 100 100 100 100 100 100 100 100 100 100 100 100 92 90 100 100 100
69 100 100 100 100 100 100 100 100 100 100 100 100 100 100 100 100 100 100 100 100 100 100 100 100 100 100 100 100 100 100 96 87 100 100 100 100 100
100 58 99 100 100 100 100 100 100 100 100 100 100 100 100 100 97 98 100 100 100 100 100 100 99 95 97 100 100 100 100 100 100 100 89 99 100 100
2 67 50 96 100 84 99 100 100 100 100 100 70 92 100 100 100 30 26 88 100 100 98 33 19 16 34 71 61 90 100 99 99 100 100 100 100 100
4 5 6 31 18 5 56 79 99 57 66 2 10 2 2 54 6 0 0 0 0 0 0 0 0 0 12 6 37 0 0 0 0 0 0 0 0 0